Year,Month,Day,Hour,Minute,Value (Times are PST for temperature in C)
2015,09,28,00,00,7.80
2015,09,28,00,01,7.80
2015,09,28,00,02,7.80
2015,09,28,00,03,7.80
2015,09,28,00,04,7.80
2015,09,28,00,05,7.80
2015,09,28,00,06,7.80
2015,09,28,00,07,7.90
2015,09,28,00,08,7.90
2015,09,28,00,09,7.80
2015,09,28,00,10,7.80
2015,09,28,00,11,7.80
2015,09,28,00,12,7.80
2015,09,28,00,13,7.80
2015,09,28,00,14,7.80
2015,09,28,00,15,7.80
2015,09,28,00,16,7.90
2015,09,28,00,17,7.90
2015,09,28,00,18,7.90
2015,09,28,00,19,7.80
2015,09,28,00,20,7.90
2015,09,28,00,21,7.90
2015,09,28,00,22,7.90
2015,09,28,00,23,7.90
2015,09,28,00,24,7.90
2015,09,28,00,25,7.90
2015,09,28,00,26,7.90
2015,09,28,00,27,7.90
2015,09,28,00,28,7.90
2015,09,28,00,29,7.90
2015,09,28,00,30,7.90
2015,09,28,00,31,7.90
2015,09,28,00,32,7.90
2015,09,28,00,33,7.90
2015,09,28,00,34,7.90
2015,09,28,00,35,7.90
2015,09,28,00,36,7.90
2015,09,28,00,37,8.00
2015,09,28,00,38,8.00
2015,09,28,00,39,7.90
2015,09,28,00,40,7.90
2015,09,28,00,41,7.90
2015,09,28,00,42,7.90
2015,09,28,00,43,7.90
2015,09,28,00,44,7.90
2015,09,28,00,45,7.90
2015,09,28,00,46,7.80
2015,09,28,00,47,7.80
2015,09,28,00,48,7.80
2015,09,28,00,49,7.80
2015,09,28,00,50,7.80
2015,09,28,00,51,7.80
2015,09,28,00,52,7.80
2015,09,28,00,53,7.80
2015,09,28,00,54,7.80
2015,09,28,00,55,7.80
2015,09,28,00,56,7.80
2015,09,28,00,57,7.80
2015,09,28,00,58,7.80
2015,09,28,00,59,7.80
2015,09,28,01,00,7.80
2015,09,28,01,01,7.70
2015,09,28,01,02,7.70
2015,09,28,01,03,7.70
2015,09,28,01,04,7.70
2015,09,28,01,05,7.70
2015,09,28,01,06,7.60
2015,09,28,01,07,7.60
2015,09,28,01,08,7.60
2015,09,28,01,09,7.60
2015,09,28,01,10,7.60
2015,09,28,01,11,7.60
2015,09,28,01,12,7.50
2015,09,28,01,13,7.50
2015,09,28,01,14,7.50
2015,09,28,01,15,7.50
2015,09,28,01,16,7.50
2015,09,28,01,17,7.50
2015,09,28,01,18,7.50
2015,09,28,01,19,7.50
2015,09,28,01,20,7.40
2015,09,28,01,21,7.40
2015,09,28,01,22,7.40
2015,09,28,01,23,7.40
2015,09,28,01,24,7.40
2015,09,28,01,25,7.40
2015,09,28,01,26,7.40
2015,09,28,01,27,7.40
2015,09,28,01,28,7.30
2015,09,28,01,29,7.30
2015,09,28,01,30,7.30
2015,09,28,01,31,7.30
2015,09,28,01,32,7.30
2015,09,28,01,33,7.40
2015,09,28,01,34,7.40
2015,09,28,01,35,7.40
2015,09,28,01,36,7.40
2015,09,28,01,37,7.40
2015,09,28,01,38,7.40
2015,09,28,01,39,7.40
2015,09,28,01,40,7.40
2015,09,28,01,41,7.40
2015,09,28,01,42,7.30
2015,09,28,01,43,7.30
2015,09,28,01,44,7.30
2015,09,28,01,45,7.30
2015,09,28,01,46,7.30
2015,09,28,01,47,7.20
2015,09,28,01,48,7.20
2015,09,28,01,49,7.20
2015,09,28,01,50,7.20
2015,09,28,01,51,7.20
2015,09,28,01,52,7.20
2015,09,28,01,53,7.10
2015,09,28,01,54,7.10
2015,09,28,01,55,7.10
2015,09,28,01,56,7.10
2015,09,28,01,57,7.10
2015,09,28,01,58,7.10
2015,09,28,01,59,7.10
2015,09,28,02,00,7.10
2015,09,28,02,01,7.10
2015,09,28,02,02,7.10
2015,09,28,02,03,7.10
2015,09,28,02,04,7.00
2015,09,28,02,05,7.00
2015,09,28,02,06,7.00
2015,09,28,02,07,6.90
2015,09,28,02,08,6.90
2015,09,28,02,09,6.90
2015,09,28,02,10,6.90
2015,09,28,02,11,6.90
2015,09,28,02,12,6.90
2015,09,28,02,13,7.00
2015,09,28,02,14,6.90
2015,09,28,02,15,6.90
2015,09,28,02,16,7.00
2015,09,28,02,17,6.90
2015,09,28,02,18,7.00
2015,09,28,02,19,7.00
2015,09,28,02,20,7.00
2015,09,28,02,21,7.00
2015,09,28,02,22,7.00
2015,09,28,02,23,7.00
2015,09,28,02,24,7.00
2015,09,28,02,25,6.90
2015,09,28,02,26,6.90
2015,09,28,02,27,6.90
2015,09,28,02,28,7.00
2015,09,28,02,29,6.90
2015,09,28,02,30,6.90
2015,09,28,02,31,6.90
2015,09,28,02,32,6.90
2015,09,28,02,33,6.90
2015,09,28,02,34,6.90
2015,09,28,02,35,6.80
2015,09,28,02,36,6.80
2015,09,28,02,37,6.80
2015,09,28,02,38,6.80
2015,09,28,02,39,6.80
2015,09,28,02,40,6.70
2015,09,28,02,41,6.70
2015,09,28,02,42,6.70
2015,09,28,02,43,6.70
2015,09,28,02,44,6.70
2015,09,28,02,45,6.70
2015,09,28,02,46,6.70
2015,09,28,02,47,6.70
2015,09,28,02,48,6.70
2015,09,28,02,49,6.70
2015,09,28,02,50,6.70
2015,09,28,02,51,6.70
2015,09,28,02,52,6.70
2015,09,28,02,53,6.70
2015,09,28,02,54,6.60
2015,09,28,02,55,6.60
2015,09,28,02,56,6.60
2015,09,28,02,57,6.50
2015,09,28,02,58,6.50
2015,09,28,02,59,6.50
2015,09,28,03,00,6.50
2015,09,28,03,01,6.40
2015,09,28,03,02,6.40
2015,09,28,03,03,6.30
2015,09,28,03,04,6.30
2015,09,28,03,05,6.30
2015,09,28,03,06,6.20
2015,09,28,03,07,6.20
2015,09,28,03,08,6.20
2015,09,28,03,09,6.20
2015,09,28,03,10,6.20
2015,09,28,03,11,6.30
2015,09,28,03,12,6.30
2015,09,28,03,13,6.30
2015,09,28,03,14,6.40
2015,09,28,03,15,6.50
2015,09,28,03,16,6.50
2015,09,28,03,17,6.50
2015,09,28,03,18,6.50
2015,09,28,03,19,6.50
2015,09,28,03,20,6.40
2015,09,28,03,21,6.40
2015,09,28,03,22,6.40
2015,09,28,03,23,6.40
2015,09,28,03,24,6.40
2015,09,28,03,25,6.40
2015,09,28,03,26,6.40
2015,09,28,03,27,6.40
2015,09,28,03,28,6.40
2015,09,28,03,29,6.40
2015,09,28,03,30,6.40
2015,09,28,03,31,6.30
2015,09,28,03,32,6.30
2015,09,28,03,33,6.30
2015,09,28,03,34,6.30
2015,09,28,03,35,6.30
2015,09,28,03,36,6.30
2015,09,28,03,37,6.30
2015,09,28,03,38,6.30
2015,09,28,03,39,6.30
2015,09,28,03,40,6.30
2015,09,28,03,41,6.30
2015,09,28,03,42,6.30
2015,09,28,03,43,6.30
2015,09,28,03,44,6.30
2015,09,28,03,45,6.30
2015,09,28,03,46,6.20
2015,09,28,03,47,6.20
2015,09,28,03,48,6.30
2015,09,28,03,49,6.20
2015,09,28,03,50,6.20
2015,09,28,03,51,6.20
2015,09,28,03,52,6.20
2015,09,28,03,53,6.20
2015,09,28,03,54,6.10
2015,09,28,03,55,6.10
2015,09,28,03,56,6.10
2015,09,28,03,57,6.10
2015,09,28,03,58,6.10
2015,09,28,03,59,6.10
2015,09,28,04,00,6.10
2015,09,28,04,01,6.10
2015,09,28,04,02,6.10
2015,09,28,04,03,6.10
2015,09,28,04,04,6.20
2015,09,28,04,05,6.20
2015,09,28,04,06,6.20
2015,09,28,04,07,6.20
2015,09,28,04,08,6.10
2015,09,28,04,09,6.10
2015,09,28,04,10,6.10
2015,09,28,04,11,6.10
2015,09,28,04,12,6.10
2015,09,28,04,13,6.10
2015,09,28,04,14,6.10
2015,09,28,04,15,6.10
2015,09,28,04,16,6.10
2015,09,28,04,17,6.10
2015,09,28,04,18,6.10
2015,09,28,04,19,6.00
2015,09,28,04,20,6.10
2015,09,28,04,21,6.10
2015,09,28,04,22,6.10
2015,09,28,04,23,6.10
2015,09,28,04,24,6.10
2015,09,28,04,25,6.20
2015,09,28,04,26,6.20
2015,09,28,04,27,6.10
2015,09,28,04,28,6.10
2015,09,28,04,29,6.20
2015,09,28,04,30,6.20
2015,09,28,04,31,6.20
2015,09,28,04,32,6.20
2015,09,28,04,33,6.20
2015,09,28,04,34,6.10
2015,09,28,04,35,6.10
2015,09,28,04,36,6.10
2015,09,28,04,37,6.10
2015,09,28,04,38,6.10
2015,09,28,04,39,6.10
2015,09,28,04,40,6.10
2015,09,28,04,41,6.10
2015,09,28,04,42,6.10
2015,09,28,04,43,6.10
2015,09,28,04,44,6.10
2015,09,28,04,45,6.10
2015,09,28,04,46,6.10
2015,09,28,04,47,6.10
2015,09,28,04,48,6.10
2015,09,28,04,49,6.10
2015,09,28,04,50,6.10
2015,09,28,04,51,6.10
2015,09,28,04,52,6.10
2015,09,28,04,53,6.00
2015,09,28,04,54,6.00
2015,09,28,04,55,6.00
2015,09,28,04,56,6.00
2015,09,28,04,57,5.90
2015,09,28,04,58,5.90
2015,09,28,04,59,5.80
2015,09,28,05,00,5.80
2015,09,28,05,01,5.70
2015,09,28,05,02,5.80
2015,09,28,05,03,5.80
2015,09,28,05,04,5.80
2015,09,28,05,05,5.80
2015,09,28,05,06,5.70
2015,09,28,05,07,5.70
2015,09,28,05,08,5.70
2015,09,28,05,09,5.70
2015,09,28,05,10,5.70
2015,09,28,05,11,5.70
2015,09,28,05,12,5.70
2015,09,28,05,13,5.70
2015,09,28,05,14,5.70
2015,09,28,05,15,5.60
2015,09,28,05,16,5.60
2015,09,28,05,17,5.60
2015,09,28,05,18,5.60
2015,09,28,05,19,5.70
2015,09,28,05,20,5.60
2015,09,28,05,21,5.60
2015,09,28,05,22,5.60
2015,09,28,05,23,5.60
2015,09,28,05,24,5.50
2015,09,28,05,25,5.50
2015,09,28,05,26,5.50
2015,09,28,05,27,5.40
2015,09,28,05,28,5.40
2015,09,28,05,29,5.40
2015,09,28,05,30,5.40
2015,09,28,05,31,5.40
2015,09,28,05,32,5.40
2015,09,28,05,33,5.40
2015,09,28,05,34,5.30
2015,09,28,05,35,5.30
2015,09,28,05,36,5.30
2015,09,28,05,37,5.30
2015,09,28,05,38,5.30
2015,09,28,05,39,5.20
2015,09,28,05,40,5.20
2015,09,28,05,41,5.20
2015,09,28,05,42,5.20
2015,09,28,05,43,5.30
2015,09,28,05,44,5.30
2015,09,28,05,45,5.30
2015,09,28,05,46,5.20
2015,09,28,05,47,5.20
2015,09,28,05,48,5.20
2015,09,28,05,49,5.20
2015,09,28,05,50,5.10
2015,09,28,05,51,5.10
2015,09,28,05,52,5.10
2015,09,28,05,53,5.10
2015,09,28,05,54,5.10
2015,09,28,05,55,5.00
2015,09,28,05,56,5.00
2015,09,28,05,57,5.00
2015,09,28,05,58,5.00
2015,09,28,05,59,5.00
2015,09,28,06,00,5.00
2015,09,28,06,01,5.00
2015,09,28,06,02,5.00
2015,09,28,06,03,5.00
2015,09,28,06,04,5.00
2015,09,28,06,05,5.00
2015,09,28,06,06,5.00
2015,09,28,06,07,5.00
2015,09,28,06,08,5.00
2015,09,28,06,09,5.10
2015,09,28,06,10,5.10
2015,09,28,06,11,5.10
2015,09,28,06,12,5.10
2015,09,28,06,13,5.10
2015,09,28,06,14,5.20
2015,09,28,06,15,5.20
2015,09,28,06,16,5.20
2015,09,28,06,17,5.20
2015,09,28,06,18,5.20
2015,09,28,06,19,5.20
2015,09,28,06,20,5.20
2015,09,28,06,21,5.20
2015,09,28,06,22,5.30
2015,09,28,06,23,5.30
2015,09,28,06,24,5.20
2015,09,28,06,25,5.20
2015,09,28,06,26,5.20
2015,09,28,06,27,5.20
2015,09,28,06,28,5.20
2015,09,28,06,29,5.20
2015,09,28,06,30,5.20
2015,09,28,06,31,5.20
2015,09,28,06,32,5.20
2015,09,28,06,33,5.20
2015,09,28,06,34,5.20
2015,09,28,06,35,5.20
2015,09,28,06,36,5.20
2015,09,28,06,37,5.20
2015,09,28,06,38,5.20
2015,09,28,06,39,5.20
2015,09,28,06,40,5.20
2015,09,28,06,41,5.10
2015,09,28,06,42,5.10
2015,09,28,06,43,5.10
2015,09,28,06,44,5.10
2015,09,28,06,45,5.10
2015,09,28,06,46,5.10
2015,09,28,06,47,5.10
2015,09,28,06,48,5.10
2015,09,28,06,49,5.10
2015,09,28,06,50,5.10
2015,09,28,06,51,5.10
2015,09,28,06,52,5.10
2015,09,28,06,53,5.10
2015,09,28,06,54,5.10
2015,09,28,06,55,5.10
2015,09,28,06,56,5.00
2015,09,28,06,57,5.00
2015,09,28,06,58,4.90
2015,09,28,06,59,4.90
2015,09,28,07,00,4.80
2015,09,28,07,01,4.80
2015,09,28,07,02,4.80
2015,09,28,07,03,4.70
2015,09,28,07,04,4.70
2015,09,28,07,05,4.80
2015,09,28,07,06,4.80
2015,09,28,07,07,4.80
2015,09,28,07,08,4.80
2015,09,28,07,09,4.70
2015,09,28,07,10,4.70
2015,09,28,07,11,4.70
2015,09,28,07,12,4.70
2015,09,28,07,13,4.80
2015,09,28,07,14,4.80
2015,09,28,07,15,4.80
2015,09,28,07,16,4.80
2015,09,28,07,17,4.80
2015,09,28,07,18,4.80
2015,09,28,07,19,4.90
2015,09,28,07,20,4.80
2015,09,28,07,21,4.80
2015,09,28,07,22,4.80
2015,09,28,07,23,4.80
2015,09,28,07,24,4.80
2015,09,28,07,25,4.80
2015,09,28,07,26,4.80
2015,09,28,07,27,4.80
2015,09,28,07,28,4.80
2015,09,28,07,29,4.80
2015,09,28,07,30,4.90
2015,09,28,07,31,4.90
2015,09,28,07,32,4.90
2015,09,28,07,33,4.90
2015,09,28,07,34,4.90
2015,09,28,07,35,4.90
2015,09,28,07,36,4.90
2015,09,28,07,37,5.00
2015,09,28,07,38,5.00
2015,09,28,07,39,5.10
2015,09,28,07,40,5.10
2015,09,28,07,41,5.20
2015,09,28,07,42,5.20
2015,09,28,07,43,5.20
2015,09,28,07,44,5.30
2015,09,28,07,45,5.30
2015,09,28,07,46,5.40
2015,09,28,07,47,5.40
2015,09,28,07,48,5.50
2015,09,28,07,49,5.60
2015,09,28,07,50,5.60
2015,09,28,07,51,5.60
2015,09,28,07,52,5.60
2015,09,28,07,53,5.60
2015,09,28,07,54,5.70
2015,09,28,07,55,5.70
2015,09,28,07,56,5.70
2015,09,28,07,57,5.80
2015,09,28,07,58,5.80
2015,09,28,07,59,5.80
2015,09,28,08,00,5.80
2015,09,28,08,01,5.90
2015,09,28,08,02,5.90
2015,09,28,08,03,5.90
2015,09,28,08,04,6.00
2015,09,28,08,05,6.00
2015,09,28,08,06,6.10
2015,09,28,08,07,6.10
2015,09,28,08,08,6.20
2015,09,28,08,09,6.30
2015,09,28,08,10,6.40
2015,09,28,08,11,6.50
2015,09,28,08,12,6.60
2015,09,28,08,13,6.70
2015,09,28,08,14,6.70
2015,09,28,08,15,6.80
2015,09,28,08,16,6.90
2015,09,28,08,17,6.90
2015,09,28,08,18,7.00
2015,09,28,08,19,7.10
2015,09,28,08,20,7.10
2015,09,28,08,21,7.20
2015,09,28,08,22,7.20
2015,09,28,08,23,7.30
2015,09,28,08,24,7.30
2015,09,28,08,25,7.30
2015,09,28,08,26,7.40
2015,09,28,08,27,7.40
2015,09,28,08,28,7.50
2015,09,28,08,29,7.50
2015,09,28,08,30,7.50
2015,09,28,08,31,7.50
2015,09,28,08,32,7.50
2015,09,28,08,33,7.50
2015,09,28,08,34,7.60
2015,09,28,08,35,7.60
2015,09,28,08,36,7.60
2015,09,28,08,37,7.60
2015,09,28,08,38,7.70
2015,09,28,08,39,7.70
2015,09,28,08,40,7.80
2015,09,28,08,41,7.80
2015,09,28,08,42,7.90
2015,09,28,08,43,8.00
2015,09,28,08,44,8.00
2015,09,28,08,45,8.10
2015,09,28,08,46,8.20
2015,09,28,08,47,8.20
2015,09,28,08,48,8.30
2015,09,28,08,49,8.40
2015,09,28,08,50,8.40
2015,09,28,08,51,8.50
2015,09,28,08,52,8.50
2015,09,28,08,53,8.60
2015,09,28,08,54,8.70
2015,09,28,08,55,8.70
2015,09,28,08,56,8.80
2015,09,28,08,57,8.90
2015,09,28,08,58,9.00
2015,09,28,08,59,9.10
2015,09,28,09,00,9.10
2015,09,28,09,01,9.20
2015,09,28,09,02,9.20
2015,09,28,09,03,9.30
2015,09,28,09,04,9.40
2015,09,28,09,05,9.40
2015,09,28,09,06,9.50
2015,09,28,09,07,9.70
2015,09,28,09,08,9.70
2015,09,28,09,09,9.80
2015,09,28,09,10,9.90
2015,09,28,09,11,10.10
2015,09,28,09,12,10.20
2015,09,28,09,13,10.30
2015,09,28,09,14,10.40
2015,09,28,09,15,10.50
2015,09,28,09,16,10.60
2015,09,28,09,17,10.80
2015,09,28,09,18,10.90
2015,09,28,09,19,11.00
2015,09,28,09,20,11.10
2015,09,28,09,21,11.20
2015,09,28,09,22,11.30
2015,09,28,09,23,11.40
2015,09,28,09,24,11.60
2015,09,28,09,25,11.70
2015,09,28,09,26,11.80
2015,09,28,09,27,11.80
2015,09,28,09,28,11.90
2015,09,28,09,29,12.00
2015,09,28,09,30,12.10
2015,09,28,09,31,12.20
2015,09,28,09,32,12.20
2015,09,28,09,33,12.30
2015,09,28,09,34,12.40
2015,09,28,09,35,12.50
2015,09,28,09,36,12.60
2015,09,28,09,37,12.60
2015,09,28,09,38,12.70
2015,09,28,09,39,12.70
2015,09,28,09,40,12.80
2015,09,28,09,41,12.80
2015,09,28,09,42,12.90
2015,09,28,09,43,12.90
2015,09,28,09,44,13.00
2015,09,28,09,45,13.00
2015,09,28,09,46,13.10
2015,09,28,09,47,13.10
2015,09,28,09,48,13.10
2015,09,28,09,49,13.10
2015,09,28,09,50,13.20
2015,09,28,09,51,13.20
2015,09,28,09,52,13.30
2015,09,28,09,53,13.30
2015,09,28,09,54,13.40
2015,09,28,09,55,13.40
2015,09,28,09,56,13.40
2015,09,28,09,57,13.40
2015,09,28,09,58,13.40
2015,09,28,09,59,13.40
2015,09,28,10,00,13.40
2015,09,28,10,01,13.40
2015,09,28,10,02,13.50
2015,09,28,10,03,13.50
2015,09,28,10,04,13.60
2015,09,28,10,05,13.60
2015,09,28,10,06,13.50
2015,09,28,10,07,13.60
2015,09,28,10,08,13.60
2015,09,28,10,09,13.60
2015,09,28,10,10,13.70
2015,09,28,10,11,13.70
2015,09,28,10,12,13.80
2015,09,28,10,13,13.80
2015,09,28,10,14,13.80
2015,09,28,10,15,13.80
2015,09,28,10,16,13.80
2015,09,28,10,17,13.90
2015,09,28,10,18,14.00
2015,09,28,10,19,14.10
2015,09,28,10,20,14.10
2015,09,28,10,21,14.20
2015,09,28,10,22,14.20
2015,09,28,10,23,14.30
2015,09,28,10,24,14.40
2015,09,28,10,25,14.40
2015,09,28,10,26,14.40
2015,09,28,10,27,14.40
2015,09,28,10,28,14.50
2015,09,28,10,29,14.50
2015,09,28,10,30,14.60
2015,09,28,10,31,14.60
2015,09,28,10,32,14.60
2015,09,28,10,33,14.60
2015,09,28,10,34,14.60
2015,09,28,10,35,14.60
2015,09,28,10,36,14.60
2015,09,28,10,37,14.60
2015,09,28,10,38,14.70
2015,09,28,10,39,14.80
2015,09,28,10,40,14.90
2015,09,28,10,41,15.00
2015,09,28,10,42,15.10
2015,09,28,10,43,15.10
2015,09,28,10,44,15.20
2015,09,28,10,45,15.20
2015,09,28,10,46,15.20
2015,09,28,10,47,15.20
2015,09,28,10,48,15.20
2015,09,28,10,49,15.20
2015,09,28,10,50,15.20
2015,09,28,10,51,15.20
2015,09,28,10,52,15.30
2015,09,28,10,53,15.30
2015,09,28,10,54,15.40
2015,09,28,10,55,15.50
2015,09,28,10,56,15.50
2015,09,28,10,57,15.60
2015,09,28,10,58,15.60
2015,09,28,10,59,15.60
2015,09,28,11,00,15.70
2015,09,28,11,01,15.60
2015,09,28,11,02,15.50
2015,09,28,11,03,15.50
2015,09,28,11,04,15.50
2015,09,28,11,05,15.60
2015,09,28,11,06,15.60
2015,09,28,11,07,15.70
2015,09,28,11,08,15.70
2015,09,28,11,09,15.70
2015,09,28,11,10,15.80
2015,09,28,11,11,15.90
2015,09,28,11,12,15.90
2015,09,28,11,13,16.00
2015,09,28,11,14,16.10
2015,09,28,11,15,16.20
2015,09,28,11,16,16.20
2015,09,28,11,17,16.30
2015,09,28,11,18,16.30
2015,09,28,11,19,16.30
2015,09,28,11,20,16.30
2015,09,28,11,21,16.40
2015,09,28,11,22,16.50
2015,09,28,11,23,16.60
2015,09,28,11,24,16.70
2015,09,28,11,25,16.80
2015,09,28,11,26,16.80
2015,09,28,11,27,16.80
2015,09,28,11,28,16.90
2015,09,28,11,29,16.90
2015,09,28,11,30,16.90
2015,09,28,11,31,16.90
2015,09,28,11,32,17.00
2015,09,28,11,33,17.00
2015,09,28,11,34,17.00
2015,09,28,11,35,16.90
2015,09,28,11,36,16.90
2015,09,28,11,37,17.00
2015,09,28,11,38,17.00
2015,09,28,11,39,17.00
2015,09,28,11,40,17.00
2015,09,28,11,41,17.10
2015,09,28,11,42,17.10
2015,09,28,11,43,17.00
2015,09,28,11,44,17.10
2015,09,28,11,45,17.10
2015,09,28,11,46,17.20
2015,09,28,11,47,17.30
2015,09,28,11,48,17.30
2015,09,28,11,49,17.30
2015,09,28,11,50,17.30
2015,09,28,11,51,17.20
2015,09,28,11,52,17.20
2015,09,28,11,53,17.20
2015,09,28,11,54,17.30
2015,09,28,11,55,17.30
2015,09,28,11,56,17.30
2015,09,28,11,57,17.40
2015,09,28,11,58,17.50
2015,09,28,11,59,17.60
2015,09,28,12,00,17.70
2015,09,28,12,01,17.80
2015,09,28,12,02,17.90
2015,09,28,12,03,17.90
2015,09,28,12,04,18.00
2015,09,28,12,05,18.10
2015,09,28,12,06,18.20
2015,09,28,12,07,18.30
2015,09,28,12,08,18.30
2015,09,28,12,09,18.30
2015,09,28,12,10,18.40
2015,09,28,12,11,18.40
2015,09,28,12,12,18.40
2015,09,28,12,13,18.20
2015,09,28,12,14,18.00
2015,09,28,12,15,17.90
2015,09,28,12,16,17.90
2015,09,28,12,17,17.90
2015,09,28,12,18,17.90
2015,09,28,12,19,17.90
2015,09,28,12,20,17.90
2015,09,28,12,21,17.90
2015,09,28,12,22,17.90
2015,09,28,12,23,17.80
2015,09,28,12,24,17.80
2015,09,28,12,25,17.90
2015,09,28,12,26,18.00
2015,09,28,12,27,18.00
2015,09,28,12,28,18.10
2015,09,28,12,29,18.10
2015,09,28,12,30,18.20
2015,09,28,12,31,18.20
2015,09,28,12,32,18.20
2015,09,28,12,33,18.30
2015,09,28,12,34,18.30
2015,09,28,12,35,18.30
2015,09,28,12,36,18.40
2015,09,28,12,37,18.40
2015,09,28,12,38,18.40
2015,09,28,12,39,18.40
2015,09,28,12,40,18.30
2015,09,28,12,41,18.30
2015,09,28,12,42,18.30
2015,09,28,12,43,18.40
2015,09,28,12,44,18.40
2015,09,28,12,45,18.50
2015,09,28,12,46,18.50
2015,09,28,12,47,18.40
2015,09,28,12,48,18.40
2015,09,28,12,49,18.30
2015,09,28,12,50,18.30
2015,09,28,12,51,18.30
2015,09,28,12,52,18.30
2015,09,28,12,53,18.30
2015,09,28,12,54,18.30
2015,09,28,12,55,18.30
2015,09,28,12,56,18.40
2015,09,28,12,57,18.50
2015,09,28,12,58,18.50
2015,09,28,12,59,18.50
2015,09,28,13,00,18.60
2015,09,28,13,01,18.60
2015,09,28,13,02,18.60
2015,09,28,13,03,18.50
2015,09,28,13,04,18.40
2015,09,28,13,05,18.50
2015,09,28,13,06,18.60
2015,09,28,13,07,18.70
2015,09,28,13,08,18.70
2015,09,28,13,09,18.80
2015,09,28,13,10,18.70
2015,09,28,13,11,18.70
2015,09,28,13,12,18.70
2015,09,28,13,13,18.70
2015,09,28,13,14,18.70
2015,09,28,13,15,18.70
2015,09,28,13,16,18.70
2015,09,28,13,17,18.80
2015,09,28,13,18,18.80
2015,09,28,13,19,18.80
2015,09,28,13,20,18.70
2015,09,28,13,21,18.70
2015,09,28,13,22,18.70
2015,09,28,13,23,18.70
2015,09,28,13,24,18.70
2015,09,28,13,25,18.70
2015,09,28,13,26,18.70
2015,09,28,13,27,18.80
2015,09,28,13,28,18.80
2015,09,28,13,29,18.90
2015,09,28,13,30,19.00
2015,09,28,13,31,19.00
2015,09,28,13,32,18.90
2015,09,28,13,33,18.80
2015,09,28,13,34,18.70
2015,09,28,13,35,18.70
2015,09,28,13,36,18.80
2015,09,28,13,37,18.80
2015,09,28,13,38,18.80
2015,09,28,13,39,18.80
2015,09,28,13,40,18.80
2015,09,28,13,41,18.70
2015,09,28,13,42,18.70
2015,09,28,13,43,18.70
2015,09,28,13,44,18.60
2015,09,28,13,45,18.60
2015,09,28,13,46,18.50
2015,09,28,13,47,18.40
2015,09,28,13,48,18.50
2015,09,28,13,49,18.60
2015,09,28,13,50,18.60
2015,09,28,13,51,18.80
2015,09,28,13,52,18.80
2015,09,28,13,53,18.90
2015,09,28,13,54,19.00
2015,09,28,13,55,19.10
2015,09,28,13,56,19.10
2015,09,28,13,57,19.10
2015,09,28,13,58,19.10
2015,09,28,13,59,19.10
2015,09,28,14,00,19.10
2015,09,28,14,01,19.10
2015,09,28,14,02,19.20
2015,09,28,14,03,19.20
2015,09,28,14,04,19.30
2015,09,28,14,05,19.30
2015,09,28,14,06,19.30
2015,09,28,14,07,19.30
2015,09,28,14,08,19.30
2015,09,28,14,09,19.40
2015,09,28,14,10,19.40
2015,09,28,14,11,19.30
2015,09,28,14,12,19.30
2015,09,28,14,13,19.30
2015,09,28,14,14,19.20
2015,09,28,14,15,19.20
2015,09,28,14,16,19.10
2015,09,28,14,17,19.10
2015,09,28,14,18,18.90
2015,09,28,14,19,19.00
2015,09,28,14,20,19.00
2015,09,28,14,21,19.10
2015,09,28,14,22,19.10
2015,09,28,14,23,19.10
2015,09,28,14,24,19.10
2015,09,28,14,25,19.10
2015,09,28,14,26,19.10
2015,09,28,14,27,19.10
2015,09,28,14,28,19.20
2015,09,28,14,29,19.20
2015,09,28,14,30,19.40
2015,09,28,14,31,19.40
2015,09,28,14,32,19.30
2015,09,28,14,33,19.20
2015,09,28,14,34,19.10
2015,09,28,14,35,19.10
2015,09,28,14,36,19.20
2015,09,28,14,37,19.20
2015,09,28,14,38,19.20
2015,09,28,14,39,19.20
2015,09,28,14,40,19.20
2015,09,28,14,41,19.20
2015,09,28,14,42,19.30
2015,09,28,14,43,19.40
2015,09,28,14,44,19.50
2015,09,28,14,45,19.50
2015,09,28,14,46,19.60
2015,09,28,14,47,19.60
2015,09,28,14,48,19.70
2015,09,28,14,49,19.70
2015,09,28,14,50,19.70
2015,09,28,14,51,19.80
2015,09,28,14,52,19.80
2015,09,28,14,53,19.80
2015,09,28,14,54,19.80
2015,09,28,14,55,19.80
2015,09,28,14,56,19.80
2015,09,28,14,57,19.80
2015,09,28,14,58,19.90
2015,09,28,14,59,20.00
2015,09,28,15,00,20.00
2015,09,28,15,01,20.10
2015,09,28,15,02,20.20
2015,09,28,15,03,20.20
2015,09,28,15,04,20.20
2015,09,28,15,05,20.20
2015,09,28,15,06,20.20
2015,09,28,15,07,20.20
2015,09,28,15,08,20.20
2015,09,28,15,09,20.20
2015,09,28,15,10,20.10
2015,09,28,15,11,20.00
2015,09,28,15,12,20.00
2015,09,28,15,13,20.00
2015,09,28,15,14,19.90
2015,09,28,15,15,19.80
2015,09,28,15,16,19.70
2015,09,28,15,17,19.70
2015,09,28,15,18,19.70
2015,09,28,15,19,19.70
2015,09,28,15,20,19.80
2015,09,28,15,21,19.80
2015,09,28,15,22,19.80
2015,09,28,15,23,19.80
2015,09,28,15,24,19.80
2015,09,28,15,25,19.70
2015,09,28,15,26,19.70
2015,09,28,15,27,19.70
2015,09,28,15,28,19.60
2015,09,28,15,29,19.60
2015,09,28,15,30,19.50
2015,09,28,15,31,19.40
2015,09,28,15,32,19.40
2015,09,28,15,33,19.50
2015,09,28,15,34,19.60
2015,09,28,15,35,19.80
2015,09,28,15,36,19.90
2015,09,28,15,37,20.00
2015,09,28,15,38,20.10
2015,09,28,15,39,20.30
2015,09,28,15,40,20.40
2015,09,28,15,41,20.40
2015,09,28,15,42,20.40
2015,09,28,15,43,20.30
2015,09,28,15,44,20.20
2015,09,28,15,45,20.10
2015,09,28,15,46,20.00
2015,09,28,15,47,19.90
2015,09,28,15,48,19.80
2015,09,28,15,49,19.70
2015,09,28,15,50,19.60
2015,09,28,15,51,19.60
2015,09,28,15,52,19.70
2015,09,28,15,53,19.70
2015,09,28,15,54,19.80
2015,09,28,15,55,19.80
2015,09,28,15,56,19.90
2015,09,28,15,57,20.00
2015,09,28,15,58,20.10
2015,09,28,15,59,20.20
2015,09,28,16,00,20.30
2015,09,28,16,01,20.40
2015,09,28,16,02,20.40
2015,09,28,16,03,20.30
2015,09,28,16,04,20.30
2015,09,28,16,05,20.20
2015,09,28,16,06,20.10
2015,09,28,16,07,20.10
2015,09,28,16,08,20.00
2015,09,28,16,09,19.90
2015,09,28,16,10,19.80
2015,09,28,16,11,19.80
2015,09,28,16,12,19.70
2015,09,28,16,13,19.70
2015,09,28,16,14,19.60
2015,09,28,16,15,19.60
2015,09,28,16,16,19.50
2015,09,28,16,17,19.40
2015,09,28,16,18,19.40
2015,09,28,16,19,19.30
2015,09,28,16,20,19.20
2015,09,28,16,21,19.20
2015,09,28,16,22,19.10
2015,09,28,16,23,19.00
2015,09,28,16,24,18.90
2015,09,28,16,25,18.80
2015,09,28,16,26,18.80
2015,09,28,16,27,18.60
2015,09,28,16,28,18.50
2015,09,28,16,29,18.40
2015,09,28,16,30,18.30
2015,09,28,16,31,18.20
2015,09,28,16,32,18.20
2015,09,28,16,33,18.20
2015,09,28,16,34,18.20
2015,09,28,16,35,18.20
2015,09,28,16,36,18.20
2015,09,28,16,37,18.20
2015,09,28,16,38,18.20
2015,09,28,16,39,18.20
2015,09,28,16,40,18.20
2015,09,28,16,41,18.20
2015,09,28,16,42,18.20
2015,09,28,16,43,18.20
2015,09,28,16,44,18.20
2015,09,28,16,45,18.30
2015,09,28,16,46,18.30
2015,09,28,16,47,18.30
2015,09,28,16,48,18.30
2015,09,28,16,49,18.30
2015,09,28,16,50,18.40
2015,09,28,16,51,18.40
2015,09,28,16,52,18.40
2015,09,28,16,53,18.40
2015,09,28,16,54,18.40
2015,09,28,16,55,18.40
2015,09,28,16,56,18.40
2015,09,28,16,57,18.40
2015,09,28,16,58,18.40
2015,09,28,16,59,18.50
2015,09,28,17,00,18.50
2015,09,28,17,01,18.60
2015,09,28,17,02,18.60
2015,09,28,17,03,18.60
2015,09,28,17,04,18.70
2015,09,28,17,05,18.60
2015,09,28,17,06,18.60
2015,09,28,17,07,18.60
2015,09,28,17,08,18.60
2015,09,28,17,09,18.60
2015,09,28,17,10,18.60
2015,09,28,17,11,18.60
2015,09,28,17,12,18.70
2015,09,28,17,13,18.70
2015,09,28,17,14,18.70
2015,09,28,17,15,18.70
2015,09,28,17,16,18.80
2015,09,28,17,17,18.80
2015,09,28,17,18,18.70
2015,09,28,17,19,18.70
2015,09,28,17,20,18.70
2015,09,28,17,21,18.60
2015,09,28,17,22,18.60
2015,09,28,17,23,18.60
2015,09,28,17,24,18.50
2015,09,28,17,25,18.50
2015,09,28,17,26,18.40
2015,09,28,17,27,18.30
2015,09,28,17,28,18.30
2015,09,28,17,29,18.20
2015,09,28,17,30,18.20
2015,09,28,17,31,18.10
2015,09,28,17,32,18.00
2015,09,28,17,33,17.90
2015,09,28,17,34,17.90
2015,09,28,17,35,17.80
2015,09,28,17,36,17.80
2015,09,28,17,37,17.80
2015,09,28,17,38,17.70
2015,09,28,17,39,17.70
2015,09,28,17,40,17.60
2015,09,28,17,41,17.60
2015,09,28,17,42,17.60
2015,09,28,17,43,17.60